Regional Weather Roundup
Issued by NWS

Home | Current Version | Previous Version | Graphics & Text | Print | Product List | Glossary On
Versions: 1 2 3 4 5 6 7 8 9 10 11 12 13 14 15 16 17 18 19 20 21 22 23 24 25 26 27 28 29 30 31 32 33 34 35 36 37 38 39 40 41 42 43 44 45 46 47 48 49 50
000
ASUS45 KCYS 231510
RWRWY

WYOMING REGIONAL WEATHER ROUNDUP
NATIONAL WEATHER SERVICE CHEYENNE WY
800 AM MST SUN NOV 23 2014

NOTE:  "FAIR" INDICATES FEW OR NO CLOUDS BELOW 12,000 FEET
WITH NO SIGNIFICANT WEATHER AND/OR OBSTRUCTIONS TO VISIBILITY.

WYZ001-231600-
YELLOWSTONE NATIONAL PARK

CITY           SKY/WX    TMP DP  RH WIND       PRES   REMARKS
LK YELLOWSTONE   N/A     16  12  84 VRB5      29.91R WCI   9
W YELLOWSTONE  NOT AVBL

$$
WYZ002>013-054>058-071-098>099-231600-
NORTHERN WYOMING

CITY           SKY/WX    TMP DP  RH WIND       PRES   REMARKS
JACKSON        CLOUDY    25  28 100 SW23G29   29.95S WCI  10
CODY           MOCLDY    30  18  59 SW7       29.86R WCI  23
GREYBULL       MOCLDY    31  20  63 NW9       29.87R WCI  23
WORLAND        MOCLDY    20  16  84 S7        29.88R WCI  11
SHERIDAN       MOCLDY    34  17  50 NW21G30   29.82R WCI  22
BUFFALO        CLOUDY    33  13  43 N28G41    29.80R WCI  20
GILLETTE       NOT AVBL
HULETT           N/A    N/A N/A N/A MISG        N/A
NEWCASTLE      FAIR      28  18  64 NW9       29.77R WCI  20

$$
WYZ014>020-022>026-101>103-231600-
CENTRAL WYOMING

CITY           SKY/WX    TMP DP  RH WIND       PRES   REMARKS
BIG PINEY      PTCLDY    24  11  57 NE6       29.95R WCI  17
PINEDALE       MOSUNNY   18  14  86 W12       29.93R WCI   5
DUBOIS         PTSUNNY   21  10  63 NW18G26   29.88R WCI   6
LANDER         NOT AVBL
RIVERTON       MOCLDY    30  15  53 N20       29.87R WCI  17
CASPER         MOCLDY    25  17  72 W7        29.83R WCI  17
DOUGLAS        PTCLDY   N/A N/A N/A NW8       29.82R

$$
WYZ021-027>030-104>119-231600-
SOUTHERN WYOMING

CITY           SKY/WX    TMP DP  RH WIND       PRES   REMARKS
EVANSTON       MOCLDY    21  17  84 W8        30.02R WCI  11
KEMMERER       MOSUNNY   23  19  86 W15G22    29.98R WCI  10
FORT BRIDGER   CLOUDY    25  22  89 W15       30.03R WCI  13
ROCK SPRINGS   LGT SNOW  23  21  92 W20       29.91R VSB 3/4 WCI   8
DIXON          LGT SNOW  26  24  93 W3        29.92R
RAWLINS        CLOUDY    23  17  78 W16       29.84R WCI  10
SARATOGA       CLOUDY    23  19  86 W3        29.86R
LARAMIE        CLEAR     26   9  48 NW7       29.78R WCI  18
CHEYENNE       CLEAR     28  14  55 N8        29.75R WCI  20
TORRINGTON     CLEAR     29  20  69 W10       29.77R WCI  20
PINE BLUFFS    FAIR      28  23  80 NW13      29.75S WCI  18

$$



USA.gov is the U.S. government's official web portal to all federal, state and local government web resources and services.